Wetterdaten: Woche 04.05.09 - 10.05.09 (KW19)
Datum Zeit Temp. Innen Temp. Aussen Feuchte Inne Feuchte Auss Luftdruck Regen ab 0,1 Wind
04.05.2009 00:00 20,5 C 8,3 C 43 % 67 % 1024,9 hPa 0,0 l/m 0,4 km/h (0 Bft)
04.05.2009 01:00 20,4 C 7,6 C 43 % 69 % 1025,5 hPa 0,0 l/m 0,0 km/h (0 Bft)
04.05.2009 02:00 20,2 C 6,4 C 43 % 71 % 1025,5 hPa 0,0 l/m 0,0 km/h (0 Bft)
04.05.2009 03:00 20,1 C 5,3 C 43 % 73 % 1025,5 hPa 0,0 l/m 0,0 km/h (0 Bft)
04.05.2009 04:00 19,9 C 4,5 C 43 % 76 % 1025,5 hPa 0,0 l/m 0,0 km/h (0 Bft)
04.05.2009 05:00 19,8 C 4,0 C 43 % 78 % 1025,5 hPa 0,0 l/m 0,0 km/h (0 Bft)
04.05.2009 06:00 19,6 C 3,8 C 43 % 80 % 1026,2 hPa 0,0 l/m 0,0 km/h (0 Bft)
04.05.2009 07:00 19,4 C 4,1 C 43 % 82 % 1026,5 hPa 0,0 l/m 0,0 km/h (0 Bft)
04.05.2009 08:00 19,4 C 5,8 C 44 % 83 % 1026,5 hPa 0,0 l/m 0,2 km/h (0 Bft)
04.05.2009 09:00 19,4 C 8,1 C 44 % 78 % 1026,5 hPa 0,0 l/m 0,3 km/h (0 Bft)
04.05.2009 10:00 19,4 C 10,1 C 44 % 69 % 1026,4 hPa 0,0 l/m 0,9 km/h (0 Bft)
04.05.2009 11:00 19,4 C 11,9 C 43 % 61 % 1026,4 hPa 0,0 l/m 0,0 km/h (0 Bft)
04.05.2009 12:00 19,3 C 13,0 C 41 % 56 % 1026,3 hPa 0,0 l/m 1,8 km/h (1 Bft)
04.05.2009 13:00 18,9 C 13,5 C 41 % 51 % 1025,4 hPa 0,0 l/m 0,1 km/h (0 Bft)
04.05.2009 14:00 19,3 C 14,2 C 43 % 49 % 1025,3 hPa 0,0 l/m 0,0 km/h (0 Bft)
04.05.2009 15:00 19,4 C 14,4 C 43 % 48 % 1024,4 hPa 0,0 l/m 0,0 km/h (0 Bft)
04.05.2009 16:00 19,5 C 13,6 C 44 % 49 % 1024,4 hPa 0,0 l/m 0,0 km/h (0 Bft)
04.05.2009 17:00 19,6 C 13,5 C 44 % 51 % 1024,4 hPa 0,0 l/m 1,7 km/h (1 Bft)
04.05.2009 18:00 19,7 C 13,8 C 45 % 50 % 1023,7 hPa 0,0 l/m 0,0 km/h (0 Bft)
04.05.2009 19:00 19,8 C 13,4 C 44 % 51 % 1023,4 hPa 0,0 l/m 0,0 km/h (0 Bft)
04.05.2009 20:00 19,7 C 12,3 C 44 % 53 % 1023,4 hPa 0,0 l/m 0,0 km/h (0 Bft)
04.05.2009 21:00 19,7 C 11,1 C 44 % 56 % 1023,4 hPa 0,0 l/m 0,0 km/h (0 Bft)
04.05.2009 22:00 19,9 C 10,2 C 44 % 60 % 1023,4 hPa 0,0 l/m 0,0 km/h (0 Bft)
04.05.2009 23:00 19,9 C 9,5 C 44 % 61 % 1023,3 hPa 0,0 l/m 0,0 km/h (0 Bft)
05.05.2009 00:00 19,8 C 9,0 C 44 % 62 % 1022,5 hPa 0,0 l/m 0,0 km/h (0 Bft)
05.05.2009 01:00 19,6 C 9,0 C 43 % 61 % 1022,4 hPa 0,0 l/m 0,0 km/h (0 Bft)
05.05.2009 02:00 19,6 C 9,2 C 43 % 61 % 1021,8 hPa 0,0 l/m 0,0 km/h (0 Bft)
05.05.2009 03:00 19,5 C 9,2 C 43 % 63 % 1021,4 hPa 0,0 l/m 0,4 km/h (0 Bft)
05.05.2009 04:00 19,4 C 9,2 C 44 % 66 % 1020,4 hPa 0,0 l/m 0,4 km/h (0 Bft)
05.05.2009 05:00 19,3 C 9,1 C 44 % 68 % 1020,4 hPa 0,0 l/m 0,6 km/h (0 Bft)
05.05.2009 06:00 19,3 C 8,8 C 45 % 72 % 1020,4 hPa 0,0 l/m 1,0 km/h (0 Bft)
05.05.2009 07:00 19,2 C 8,3 C 46 % 78 % 1020,2 hPa 0,0 l/m 0,9 km/h (0 Bft)
05.05.2009 08:00 19,2 C 8,3 C 47 % 82 % 1020,4 hPa 0,0 l/m 2,9 km/h (1 Bft)
05.05.2009 09:00 19,2 C 8,9 C 48 % 84 % 1020,4 hPa 0,0 l/m 1,6 km/h (1 Bft)
05.05.2009 10:00 19,2 C 9,7 C 48 % 84 % 1020,4 hPa 0,0 l/m 0,5 km/h (0 Bft)
05.05.2009 11:00 19,2 C 10,3 C 50 % 84 % 1020,4 hPa 0,0 l/m 0,6 km/h (0 Bft)
05.05.2009 12:00 19,3 C 11,3 C 53 % 85 % 1020,4 hPa 0,0 l/m 0,3 km/h (0 Bft)
05.05.2009 13:00 19,3 C 12,0 C 53 % 84 % 1020,4 hPa 1,0 l/m 0,2 km/h (0 Bft)
05.05.2009 14:00 19,3 C 12,2 C 53 % 84 % 1019,9 hPa 0,0 l/m 0,7 km/h (0 Bft)
05.05.2009 15:00 19,3 C 12,6 C 53 % 84 % 1019,4 hPa 0,0 l/m 0,8 km/h (0 Bft)
05.05.2009 16:00 19,4 C 12,6 C 53 % 82 % 1019,4 hPa 0,5 l/m 2,3 km/h (1 Bft)
05.05.2009 17:00 19,4 C 12,4 C 53 % 84 % 1019,4 hPa 0,5 l/m 2,3 km/h (1 Bft)
05.05.2009 18:00 19,4 C 12,1 C 53 % 84 % 1019,4 hPa 0,5 l/m 1,6 km/h (1 Bft)
05.05.2009 19:00 19,4 C 11,5 C 54 % 85 % 1019,1 hPa 0,0 l/m 0,1 km/h (0 Bft)
05.05.2009 20:00 19,3 C 11,3 C 54 % 86 % 1018,4 hPa 0,5 l/m 0,0 km/h (0 Bft)
05.05.2009 21:00 19,3 C 11,2 C 54 % 86 % 1018,1 hPa 0,0 l/m 0,0 km/h (0 Bft)
05.05.2009 22:00 19,3 C 11,5 C 54 % 87 % 1017,4 hPa 0,0 l/m 0,3 km/h (0 Bft)
05.05.2009 23:00 19,3 C 11,8 C 54 % 87 % 1016,7 hPa 0,0 l/m 1,8 km/h (1 Bft)
06.05.2009 00:00 19,3 C 11,8 C 54 % 85 % 1016,4 hPa 0,0 l/m 2,7 km/h (1 Bft)
06.05.2009 01:00 19,3 C 11,6 C 54 % 84 % 1015,6 hPa 0,0 l/m 2,8 km/h (1 Bft)
06.05.2009 02:00 19,2 C 11,4 C 54 % 83 % 1015,4 hPa 0,0 l/m 2,9 km/h (1 Bft)
06.05.2009 03:00 19,2 C 11,4 C 53 % 82 % 1015,4 hPa 0,0 l/m 1,8 km/h (1 Bft)
06.05.2009 04:00 19,2 C 11,3 C 53 % 81 % 1015,4 hPa 0,0 l/m 4,3 km/h (1 Bft)
06.05.2009 05:00 19,2 C 11,3 C 53 % 80 % 1014,9 hPa 0,0 l/m 5,1 km/h (1 Bft)
06.05.2009 06:00 19,2 C 11,2 C 53 % 79 % 1015,3 hPa 0,0 l/m 3,4 km/h (1 Bft)
06.05.2009 07:00 19,1 C 11,1 C 53 % 79 % 1015,4 hPa 0,0 l/m 1,0 km/h (0 Bft)
06.05.2009 08:00 19,2 C 11,1 C 54 % 78 % 1015,4 hPa 0,0 l/m 1,4 km/h (1 Bft)
06.05.2009 09:00 19,2 C 11,3 C 53 % 78 % 1015,4 hPa 0,0 l/m 2,9 km/h (1 Bft)
06.05.2009 10:00 19,1 C 11,3 C 53 % 79 % 1016,1 hPa 0,0 l/m 2,6 km/h (1 Bft)
06.05.2009 11:00 19,1 C 11,4 C 53 % 80 % 1016,4 hPa 0,0 l/m 1,8 km/h (1 Bft)
06.05.2009 12:00 19,0 C 11,6 C 53 % 81 % 1016,4 hPa 0,0 l/m 2,2 km/h (1 Bft)
06.05.2009 13:00 19,1 C 12,3 C 53 % 80 % 1016,6 hPa 0,0 l/m 2,0 km/h (1 Bft)
06.05.2009 14:00 19,2 C 12,8 C 54 % 79 % 1017,4 hPa 0,0 l/m 2,9 km/h (1 Bft)
06.05.2009 15:00 19,2 C 12,5 C 54 % 83 % 1017,4 hPa 0,0 l/m 3,6 km/h (1 Bft)
06.05.2009 16:00 19,2 C 13,0 C 54 % 83 % 1017,4 hPa 0,0 l/m 1,8 km/h (1 Bft)
06.05.2009 17:00 19,3 C 14,1 C 54 % 79 % 1017,3 hPa 0,0 l/m 2,6 km/h (1 Bft)
06.05.2009 18:00 19,4 C 14,5 C 54 % 76 % 1017,3 hPa 0,0 l/m 1,9 km/h (1 Bft)
06.05.2009 19:00 19,4 C 14,4 C 54 % 76 % 1017,3 hPa 0,0 l/m 0,1 km/h (0 Bft)
06.05.2009 20:00 19,4 C 14,1 C 54 % 77 % 1017,3 hPa 0,0 l/m 0,1 km/h (0 Bft)
06.05.2009 21:00 19,4 C 13,7 C 54 % 78 % 1017,4 hPa 0,0 l/m 0,0 km/h (0 Bft)
06.05.2009 22:00 19,4 C 13,2 C 55 % 79 % 1017,4 hPa 0,0 l/m 0,0 km/h (0 Bft)
06.05.2009 23:00 19,5 C 13,1 C 55 % 80 % 1017,4 hPa 0,0 l/m 0,2 km/h (0 Bft)
07.05.2009 00:00 19,4 C 12,8 C 55 % 79 % 1017,4 hPa 0,0 l/m 0,0 km/h (0 Bft)
07.05.2009 01:00 19,4 C 11,8 C 54 % 80 % 1016,9 hPa 0,0 l/m 0,0 km/h (0 Bft)
07.05.2009 02:00 19,4 C 11,1 C 54 % 81 % 1016,4 hPa 0,0 l/m 0,0 km/h (0 Bft)
07.05.2009 03:00 19,3 C 10,6 C 54 % 82 % 1016,4 hPa 0,0 l/m 1,3 km/h (1 Bft)
07.05.2009 04:00 19,3 C 10,3 C 54 % 83 % 1016,4 hPa 0,0 l/m 1,1 km/h (0 Bft)
07.05.2009 05:00 19,2 C 10,5 C 54 % 83 % 1016,4 hPa 0,0 l/m 0,2 km/h (0 Bft)
07.05.2009 06:00 19,2 C 10,5 C 54 % 83 % 1016,4 hPa 0,0 l/m 1,3 km/h (1 Bft)
07.05.2009 07:00 19,2 C 10,5 C 54 % 84 % 1016,4 hPa 0,0 l/m 0,6 km/h (0 Bft)
07.05.2009 08:00 19,2 C 11,0 C 54 % 83 % 1016,6 hPa 0,0 l/m 0,5 km/h (0 Bft)
07.05.2009 09:00 19,2 C 11,9 C 54 % 81 % 1016,6 hPa 0,0 l/m 1,7 km/h (1 Bft)
07.05.2009 10:00 19,2 C 14,2 C 54 % 75 % 1016,4 hPa 0,0 l/m 2,4 km/h (1 Bft)
07.05.2009 11:00 19,3 C 16,5 C 53 % 67 % 1016,3 hPa 0,0 l/m 7,0 km/h (2 Bft)
07.05.2009 12:00 19,4 C 17,7 C 53 % 61 % 1016,3 hPa 0,0 l/m 4,1 km/h (1 Bft)
07.05.2009 13:00 19,5 C 18,5 C 53 % 59 % 1016,3 hPa 0,0 l/m 4,3 km/h (1 Bft)
07.05.2009 14:00 19,6 C 19,6 C 53 % 54 % 1015,9 hPa 0,0 l/m 7,3 km/h (2 Bft)
07.05.2009 15:00 19,9 C 21,1 C 52 % 51 % 1015,2 hPa 0,0 l/m 7,7 km/h (2 Bft)
07.05.2009 16:00 20,2 C 21,6 C 52 % 48 % 1015,0 hPa 0,0 l/m 5,7 km/h (1 Bft)
07.05.2009 17:00 20,4 C 21,1 C 51 % 49 % 1014,2 hPa 0,0 l/m 1,2 km/h (1 Bft)
07.05.2009 18:00 20,4 C 20,5 C 51 % 52 % 1014,2 hPa 0,0 l/m 1,3 km/h (1 Bft)
07.05.2009 19:00 20,6 C 19,7 C 51 % 54 % 1013,3 hPa 0,0 l/m 0,0 km/h (0 Bft)
07.05.2009 20:00 20,7 C 18,4 C 51 % 58 % 1013,3 hPa 0,0 l/m 0,0 km/h (0 Bft)
07.05.2009 21:00 20,8 C 16,5 C 52 % 63 % 1013,2 hPa 0,0 l/m 0,0 km/h (0 Bft)
07.05.2009 22:00 20,8 C 14,9 C 52 % 67 % 1012,4 hPa 0,0 l/m 0,0 km/h (0 Bft)
07.05.2009 23:00 20,8 C 14,0 C 52 % 70 % 1012,3 hPa 0,0 l/m 0,0 km/h (0 Bft)
08.05.2009 00:00 20,8 C 13,0 C 52 % 72 % 1011,6 hPa 0,0 l/m 0,0 km/h (0 Bft)
08.05.2009 01:00 20,7 C 12,3 C 52 % 74 % 1010,7 hPa 0,0 l/m 0,0 km/h (0 Bft)
08.05.2009 02:00 20,6 C 12,0 C 52 % 76 % 1010,1 hPa 0,0 l/m 0,0 km/h (0 Bft)
08.05.2009 03:00 20,5 C 11,9 C 52 % 78 % 1009,4 hPa 0,0 l/m 0,4 km/h (0 Bft)
08.05.2009 04:00 20,5 C 13,4 C 53 % 81 % 1009,2 hPa 3,1 l/m 1,2 km/h (1 Bft)
08.05.2009 05:00 20,5 C 12,7 C 54 % 81 % 1009,2 hPa 0,0 l/m 0,0 km/h (0 Bft)
08.05.2009 06:00 20,5 C 12,4 C 54 % 83 % 1010,3 hPa 0,0 l/m 0,5 km/h (0 Bft)
08.05.2009 07:00 20,5 C 12,4 C 54 % 83 % 1011,1 hPa 0,0 l/m 0,6 km/h (0 Bft)
08.05.2009 08:00 20,4 C 12,3 C 54 % 82 % 1012,0 hPa 0,0 l/m 1,1 km/h (1 Bft)
08.05.2009 09:00 20,3 C 12,5 C 54 % 79 % 1012,4 hPa 0,0 l/m 0,2 km/h (0 Bft)
08.05.2009 10:00 20,2 C 13,5 C 54 % 75 % 1012,3 hPa 0,0 l/m 1,0 km/h (0 Bft)
08.05.2009 11:00 20,2 C 15,2 C 53 % 68 % 1012,3 hPa 0,0 l/m 4,0 km/h (1 Bft)
08.05.2009 12:00 20,2 C 16,7 C 53 % 65 % 1012,3 hPa 0,0 l/m 3,6 km/h (1 Bft)
08.05.2009 13:00 20,3 C 17,2 C 53 % 63 % 1012,3 hPa 0,0 l/m 3,8 km/h (1 Bft)
08.05.2009 14:00 20,3 C 17,3 C 52 % 62 % 1012,3 hPa 0,0 l/m 3,1 km/h (1 Bft)
08.05.2009 15:00 20,4 C 17,5 C 52 % 60 % 1012,3 hPa 0,0 l/m 5,4 km/h (1 Bft)
08.05.2009 16:00 20,5 C 16,7 C 52 % 62 % 1012,3 hPa 0,0 l/m 1,3 km/h (1 Bft)
08.05.2009 17:00 20,5 C 16,0 C 52 % 63 % 1013,1 hPa 0,0 l/m 2,0 km/h (1 Bft)
08.05.2009 18:00 20,5 C 14,5 C 52 % 67 % 1014,1 hPa 1,0 l/m 1,3 km/h (1 Bft)
08.05.2009 19:00 20,4 C 12,9 C 52 % 71 % 1014,9 hPa 0,0 l/m 0,4 km/h (0 Bft)
08.05.2009 20:00 20,4 C 12,5 C 52 % 67 % 1016,0 hPa 0,0 l/m 0,1 km/h (0 Bft)
08.05.2009 21:00 20,4 C 11,0 C 51 % 68 % 1017,0 hPa 0,0 l/m 0,0 km/h (0 Bft)
08.05.2009 22:00 20,2 C 8,9 C 50 % 72 % 1018,2 hPa 0,0 l/m 0,0 km/h (0 Bft)
08.05.2009 23:00 20,1 C 7,4 C 50 % 75 % 1018,5 hPa 0,0 l/m 0,0 km/h (0 Bft)
09.05.2009 00:00 20,0 C 7,1 C 49 % 76 % 1019,1 hPa 0,0 l/m 0,0 km/h (0 Bft)
09.05.2009 01:00 19,9 C 7,3 C 48 % 75 % 1019,5 hPa 0,0 l/m 0,0 km/h (0 Bft)
09.05.2009 02:00 19,8 C 7,0 C 48 % 74 % 1019,5 hPa 0,0 l/m 0,0 km/h (0 Bft)
09.05.2009 03:00 19,6 C 6,3 C 47 % 75 % 1019,5 hPa 0,0 l/m 0,0 km/h (0 Bft)
09.05.2009 04:00 19,5 C 5,2 C 47 % 77 % 1019,5 hPa 0,0 l/m 0,0 km/h (0 Bft)
09.05.2009 05:00 19,3 C 4,5 C 47 % 78 % 1019,5 hPa 0,0 l/m 0,0 km/h (0 Bft)
09.05.2009 06:00 19,2 C 4,1 C 46 % 79 % 1019,5 hPa 0,0 l/m 0,0 km/h (0 Bft)
09.05.2009 07:00 19,0 C 5,1 C 46 % 81 % 1020,1 hPa 0,0 l/m 0,0 km/h (0 Bft)
09.05.2009 08:00 19,0 C 6,5 C 46 % 80 % 1019,5 hPa 0,0 l/m 0,0 km/h (0 Bft)
09.05.2009 09:00 19,0 C 8,5 C 46 % 78 % 1019,5 hPa 0,0 l/m 0,0 km/h (0 Bft)
09.05.2009 10:00 19,0 C 11,2 C 47 % 71 % 1019,1 hPa 0,0 l/m 0,1 km/h (0 Bft)
09.05.2009 11:00 19,1 C 14,4 C 47 % 62 % 1018,3 hPa 0,0 l/m 0,9 km/h (0 Bft)
09.05.2009 12:00 19,2 C 16,9 C 47 % 53 % 1018,2 hPa 0,0 l/m 7,1 km/h (2 Bft)
09.05.2009 13:00 19,3 C 18,4 C 47 % 51 % 1017,3 hPa 0,0 l/m 3,3 km/h (1 Bft)
09.05.2009 14:00 19,5 C 19,4 C 47 % 49 % 1016,6 hPa 0,0 l/m 8,9 km/h (2 Bft)
09.05.2009 15:00 19,6 C 19,0 C 47 % 50 % 1016,3 hPa 0,0 l/m 0,9 km/h (0 Bft)
09.05.2009 16:00 19,8 C 18,9 C 47 % 50 % 1015,5 hPa 0,0 l/m 0,7 km/h (0 Bft)
09.05.2009 17:00 19,9 C 18,6 C 47 % 50 % 1015,3 hPa 0,0 l/m 0,0 km/h (0 Bft)
09.05.2009 18:00 20,0 C 17,6 C 48 % 52 % 1015,3 hPa 0,0 l/m 0,0 km/h (0 Bft)
09.05.2009 19:00 20,0 C 16,8 C 48 % 54 % 1015,3 hPa 0,0 l/m 0,0 km/h (0 Bft)
09.05.2009 20:00 20,0 C 16,0 C 48 % 57 % 1015,2 hPa 0,0 l/m 0,0 km/h (0 Bft)
09.05.2009 21:00 20,1 C 15,0 C 48 % 60 % 1015,3 hPa 0,0 l/m 0,0 km/h (0 Bft)
09.05.2009 22:00 20,0 C 14,2 C 48 % 63 % 1015,3 hPa 0,0 l/m 0,0 km/h (0 Bft)
09.05.2009 23:00 20,0 C 13,5 C 49 % 66 % 1015,4 hPa 0,0 l/m 0,0 km/h (0 Bft)
10.05.2009 00:00 20,0 C 12,6 C 50 % 69 % 1016,4 hPa 0,0 l/m 0,0 km/h (0 Bft)
10.05.2009 01:00 20,0 C 11,0 C 50 % 72 % 1016,4 hPa 0,0 l/m 0,0 km/h (0 Bft)
10.05.2009 02:00 19,9 C 9,5 C 50 % 75 % 1017,1 hPa 0,0 l/m 0,0 km/h (0 Bft)
10.05.2009 03:00 19,8 C 8,4 C 50 % 77 % 1017,4 hPa 0,0 l/m 0,0 km/h (0 Bft)
10.05.2009 04:00 19,7 C 7,6 C 50 % 78 % 1017,5 hPa 0,0 l/m 0,0 km/h (0 Bft)
10.05.2009 05:00 19,7 C 7,2 C 49 % 81 % 1018,0 hPa 0,0 l/m 0,0 km/h (0 Bft)
10.05.2009 06:00 19,9 C 6,9 C 49 % 81 % 1018,5 hPa 0,0 l/m 0,0 km/h (0 Bft)
10.05.2009 07:00 19,8 C 7,3 C 49 % 81 % 1018,5 hPa 0,0 l/m 0,0 km/h (0 Bft)
10.05.2009 08:00 19,7 C 8,9 C 50 % 82 % 1018,7 hPa 0,0 l/m 0,0 km/h (0 Bft)
10.05.2009 09:00 19,8 C 11,4 C 50 % 83 % 1019,4 hPa 0,0 l/m 0,0 km/h (0 Bft)
10.05.2009 10:00 19,8 C 14,6 C 51 % 76 % 1019,3 hPa 0,0 l/m 1,7 km/h (1 Bft)
10.05.2009 11:00 19,9 C 17,9 C 51 % 64 % 1019,3 hPa 0,0 l/m 4,5 km/h (1 Bft)
10.05.2009 12:00 19,9 C 20,3 C 52 % 56 % 1019,3 hPa 0,0 l/m 2,0 km/h (1 Bft)
10.05.2009 13:00 19,9 C 22,0 C 53 % 51 % 1019,2 hPa 0,0 l/m 0,3 km/h (0 Bft)
10.05.2009 14:00 20,3 C 23,3 C 57 % 47 % 1018,2 hPa 0,0 l/m 0,0 km/h (0 Bft)
10.05.2009 15:00 20,5 C 23,9 C 57 % 44 % 1018,2 hPa 0,0 l/m 0,1 km/h (0 Bft)
10.05.2009 16:00 21,0 C 24,5 C 55 % 40 % 1018,1 hPa 0,0 l/m 0,0 km/h (0 Bft)
10.05.2009 17:00 21,4 C 23,5 C 54 % 40 % 1017,2 hPa 0,0 l/m 2,6 km/h (1 Bft)
10.05.2009 18:00 21,4 C 22,3 C 53 % 42 % 1016,7 hPa 0,0 l/m 3,2 km/h (1 Bft)
10.05.2009 19:00 21,4 C 21,1 C 52 % 45 % 1016,4 hPa 0,0 l/m 0,0 km/h (0 Bft)
10.05.2009 20:00 21,5 C 19,9 C 52 % 47 % 1016,9 hPa 0,0 l/m 0,0 km/h (0 Bft)
10.05.2009 21:00 21,5 C 18,4 C 51 % 50 % 1017,3 hPa 0,0 l/m 0,0 km/h (0 Bft)
10.05.2009 22:00 21,6 C 17,0 C 51 % 53 % 1017,3 hPa 0,0 l/m 0,0 km/h (0 Bft)
10.05.2009 23:00 21,5 C 15,9 C 51 % 56 % 1016,8 hPa 0,0 l/m 0,0 km/h (0 Bft)
Min-Datum _ 04.05.09 04.05.09 04.05.09 10.05.09 08.05.09 - 04.05.09
_ Min-Zeit 13:08 06:34 12:38 17:00 04:40 - 00:00
Minimum _ 18,8 C 3,7 C 39 % 38 % 1008,3 hPa - 0,0 km/h (0 Bft)
Max-Datum _ 10.05.09 10.05.09 10.05.09 05.05.09 04.05.09 08.05.09 07.05.09
_ Max-Zeit 21:50 16:14 14:30 23:04 06:34 04:04 15:02
Maximum _ 21,6 C 24,6 C 58 % 88 % 1026,6 hPa 3,1 l/m 53,8 km/h
SO (7 Bft)
Durchschnitt _ 19,8 C 12,7 C 50 % 70 % 1017,9 hPa #7,3 l/m 1,1 km/h (1 Bft)
© 2012 W. Hausmann